Sigfox identifier Datetime Temperature Humidity SNR
003C4F2E 2019-02-20 14:06:14 20.9 21 24.2
003C4F2E 2019-02-20 13:34:58 20.9 22 24.2
003C4F2E 2019-02-20 13:03:42 20.9 24 23.5
003C4F2E 2019-02-20 12:32:25 20.9 24 22.7
003C4F2E 2019-02-20 12:01:08 20.9 25 22.7
003C4F2E 2019-02-20 11:29:52 20.8 26 21.8
003C4F2E 2019-02-20 10:58:36 20.8 26 20.5
003C4F2E 2019-02-20 10:27:19 20.8 27 20.6
003C4F2E 2019-02-20 09:56:03 20.8 27 20.8
003C4F2E 2019-02-20 09:24:48 20.7 27 20.8
003C4F2E 2019-02-20 08:53:32 20.7 27 19.1
003C4F2E 2019-02-20 08:21:33 20.7 27 19.2
003C4F2E 2019-02-20 07:50:17 20.7 27 19.4
003C4F2E 2019-02-20 07:19:03 20.7 27 19.3
003C4F2E 2019-02-20 06:47:48 20.7 27 21
003C4F2E 2019-02-20 06:16:32 20.7 27 21
003C4F2E 2019-02-20 05:45:16 20.7 27 20.9
003C4F2E 2019-02-20 05:13:59 20.8 27 20.7
003C4F2E 2019-02-20 04:42:43 20.7 27 20.5
003C4F2E 2019-02-20 04:11:28 20.8 27 20.4
003C4F2E 2019-02-20 03:40:11 20.7 27 20.5
003C4F2E 2019-02-20 03:08:53 20.8 27 20.4
003C4F2E 2019-02-20 02:37:38 20.8 27 20.4
003C4F2E 2019-02-20 02:06:23 20.8 27 20.3
003C4F2E 2019-02-20 01:35:05 20.8 27 20.2
003C4F2E 2019-02-20 01:03:50 20.8 27 20.1
003C4F2E 2019-02-20 00:32:39 20.8 27 20.1
003C4F2E 2019-02-20 00:01:20 20.8 27 20
003C4F2E 2019-02-19 23:30:04 20.8 27 20.1
003C4F2E 2019-02-19 22:58:48 20.8 27 21.5
003C4F2E 2019-02-19 22:27:32 20.8 27 21.5
003C4F2E 2019-02-19 21:56:18 20.9 27 21.5
003C4F2E 2019-02-19 21:25:02 20.9 27 21.4
003C4F2E 2019-02-19 20:53:45 20.9 27 21.5
003C4F2E 2019-02-19 20:22:30 20.9 27 21.5
003C4F2E 2019-02-19 19:51:13 20.9 27 21.4
003C4F2E 2019-02-19 19:19:57 21 27 21.4
003C4F2E 2019-02-19 18:48:40 21 27 21.3
003C4F2E 2019-02-19 18:17:25 21.1 27 21.3
003C4F2E 2019-02-19 17:46:09 21.1 27 19.8
003C4F2E 2019-02-19 17:14:53 21.1 27 19.8
003C4F2E 2019-02-19 16:43:39 21.1 28 19.9
003C4F2E 2019-02-19 16:12:23 21.1 28 19.9
003C4F2E 2019-02-19 15:41:07 21.1 27 20.1
003C4F2E 2019-02-19 15:09:48 21.1 27 20.2
003C4F2E 2019-02-19 14:38:32 21.1 27 20.3
003C4F2E 2019-02-19 14:07:16 21.1 28 20.3
003C4F2E 2019-02-19 13:36:01 21.1 28 20.5
003C4F2E 2019-02-19 13:04:41 21 27 20.6
003C4F2E 2019-02-19 12:33:24 21 27 20.6
003C4F2E 2019-02-19 12:02:09 21.1 27 20.7
003C4F2E 2019-02-19 11:30:54 21 27 20.8
003C4F2E 2019-02-19 10:28:20 20.9 27 20.9
003C4F2E 2019-02-19 09:57:02 20.8 26 20.9
003C4F2E 2019-02-19 09:25:46 20.8 26 19.5
003C4F2E 2019-02-19 08:54:31 20.8 26 19.4
003C4F2E 2019-02-19 08:23:14 20.8 25 19.7
003C4F2E 2019-02-19 07:51:55 20.7 25 19.7
003C4F2E 2019-02-19 07:20:39 20.8 25 19.5
003C4F2E 2019-02-19 06:49:20 20.8 25 19.4
003C4F2E 2019-02-19 06:17:21 20.8 25 19.4
003C4F2E 2019-02-19 05:46:04 20.8 25 19.5
003C4F2E 2019-02-19 05:14:53 20.8 25 19.5
003C4F2E 2019-02-19 04:43:31 20.7 25 19.4
003C4F2E 2019-02-19 04:12:15 20.8 24 21.1
003C4F2E 2019-02-19 03:40:58 20.8 24 21
003C4F2E 2019-02-19 03:09:41 20.7 24 20.9
003C4F2E 2019-02-19 02:38:27 20.8 24 20.8
003C4F2E 2019-02-19 02:07:09 20.8 24 20.6
003C4F2E 2019-02-19 01:35:51 20.8 24 20.4
003C4F2E 2019-02-19 01:04:35 20.8 24 20.6
003C4F2E 2019-02-19 00:33:17 20.8 24 20.6
003C4F2E 2019-02-19 00:01:59 20.8 23 20.6
003C4F2E 2019-02-18 23:30:42 20.8 23 20.7
003C4F2E 2019-02-18 22:59:25 20.8 23 20.9
003C4F2E 2019-02-18 22:28:07 20.8 23 20.8
003C4F2E 2019-02-18 21:56:52 20.9 23 20.6
003C4F2E 2019-02-18 21:25:39 20.9 23 20.6
003C4F2E 2019-02-18 20:54:23 20.9 23 20.5
003C4F2E 2019-02-18 20:23:06 20.9 22 20.5
003C4F2E 2019-02-18 19:51:49 20.9 22 20.6
003C4F2E 2019-02-18 19:20:32 20.9 22 20.6
003C4F2E 2019-02-18 18:49:14 20.9 22 20.8
003C4F2E 2019-02-18 18:17:56 21 22 20.9
003C4F2E 2019-02-18 17:46:36 21 22 20.9
003C4F2E 2019-02-18 17:15:17 21 22 20.9
003C4F2E 2019-02-18 16:43:57 21.1 22 21
003C4F2E 2019-02-18 16:12:40 21.1 22 21.2
003C4F2E 2019-02-18 15:41:24 21.1 21 21.4
003C4F2E 2019-02-18 15:10:08 21.2 21 20.1
003C4F2E 2019-02-18 14:38:51 21.2 21 20.3
003C4F2E 2019-02-18 14:07:34 21.3 21 20.5
003C4F2E 2019-02-18 13:36:16 21.3 20 20.8
003C4F2E 2019-02-18 13:04:58 21.4 20 20.9
003C4F2E 2019-02-18 12:33:41 21.5 20 21.1
003C4F2E 2019-02-18 12:02:24 21.5 20 21
003C4F2E 2019-02-18 11:31:07 21.4 19 21.1
003C4F2E 2019-02-18 10:59:50 21.4 19 21.2
003C4F2E 2019-02-18 10:28:33 21.3 19 21.2
003C4F2E 2019-02-18 09:57:16 21.3 19 21.2
003C4F2E 2019-02-18 09:25:59 21.3 19 21.3
003C4F2E 2019-02-18 08:54:42 21.2 19 21.5
003C4F2E 2019-02-18 08:23:25 21.1 19 21.7
003C4F2E 2019-02-18 07:52:08 21.1 18 21.9
003C4F2E 2019-02-18 07:20:50 21 18 21.9
003C4F2E 2019-02-18 06:49:32 21 18 22
003C4F2E 2019-02-18 06:18:14 21 18 22
003C4F2E 2019-02-18 05:46:55 21 18 22.1
003C4F2E 2019-02-18 05:15:38 21 18 22.1
003C4F2E 2019-02-18 04:44:22 21 18 22.2
003C4F2E 2019-02-18 04:12:26 21 19 22.3
003C4F2E 2019-02-18 03:41:10 21 19 22.3
003C4F2E 2019-02-18 03:09:57 21 19 22.2
003C4F2E 2019-02-18 02:38:42 21 19 22.3
003C4F2E 2019-02-18 02:07:28 21 19 22.3
003C4F2E 2019-02-18 01:36:14 21.1 19 22.3
003C4F2E 2019-02-18 01:05:00 21.1 19 22.3
003C4F2E 2019-02-18 00:33:46 21.1 19 22.3
003C4F2E 2019-02-18 00:02:31 21.1 19 22.3
003C4F2E 2019-02-17 23:31:16 21.1 19 22.3
003C4F2E 2019-02-17 23:00:02 21.1 19 22.4
003C4F2E 2019-02-17 22:28:46 21.1 19 22.2
003C4F2E 2019-02-17 21:57:28 21.1 19 22.2
003C4F2E 2019-02-17 21:26:11 21.1 19 22.3
003C4F2E 2019-02-17 20:54:53 21.1 19 22.3
003C4F2E 2019-02-17 20:23:36 21.1 20 22.3
003C4F2E 2019-02-17 19:52:19 21.1 20 22.2
003C4F2E 2019-02-17 19:21:03 21.2 20 23
003C4F2E 2019-02-17 18:49:45 21.1 20 22.9
003C4F2E 2019-02-17 18:18:28 21.1 20 22.9
003C4F2E 2019-02-17 17:47:11 21.2 20 22.9
003C4F2E 2019-02-17 17:15:54 21.2 20 22.8
003C4F2E 2019-02-17 16:44:36 21.2 20 22.8
003C4F2E 2019-02-17 16:13:18 21.2 19 23
003C4F2E 2019-02-17 15:42:01 21.2 20 23
003C4F2E 2019-02-17 15:10:45 21.2 20 23
003C4F2E 2019-02-17 14:39:29 21.2 20 23
003C4F2E 2019-02-17 14:08:13 21.3 20 23.1
003C4F2E 2019-02-17 13:36:56 21.3 20 23.1
003C4F2E 2019-02-17 13:05:38 21.3 20 22.9
003C4F2E 2019-02-17 12:34:22 21.2 21 23
003C4F2E 2019-02-17 12:03:07 21.2 21 23
003C4F2E 2019-02-17 11:31:50 21.2 21 22.8
003C4F2E 2019-02-17 11:00:33 21.1 21 22.9
003C4F2E 2019-02-17 10:29:15 21.1 21 23.6
003C4F2E 2019-02-17 09:57:58 21.1 21 23.6
003C4F2E 2019-02-17 09:26:42 21.1 21 23.6
003C4F2E 2019-02-17 08:55:26 21.1 21 23.6
003C4F2E 2019-02-17 08:24:09 21.1 21 23.5
003C4F2E 2019-02-17 07:52:53 21.2 21 23.6
003C4F2E 2019-02-17 07:21:37 21.2 21 23.5
003C4F2E 2019-02-17 06:50:21 21.2 22 23.7
003C4F2E 2019-02-17 06:19:04 21.2 22 23
003C4F2E 2019-02-17 05:47:49 21.2 22 23
003C4F2E 2019-02-17 05:16:32 21.2 22 23
003C4F2E 2019-02-17 04:45:15 21.2 22 22.9
003C4F2E 2019-02-17 04:13:58 21.2 22 23
003C4F2E 2019-02-17 03:42:41 21.2 23 23
003C4F2E 2019-02-17 03:11:24 21.2 23 22.9
003C4F2E 2019-02-17 02:40:07 21.2 23 22.8
003C4F2E 2019-02-17 02:08:08 21.2 24 22.8
003C4F2E 2019-02-17 01:36:49 21.2 24 22.8
003C4F2E 2019-02-17 01:05:33 21.2 24 22.7
003C4F2E 2019-02-17 00:34:17 21.2 24 22.7
003C4F2E 2019-02-17 00:03:03 21.2 24 22.9
003C4F2E 2019-02-16 23:31:48 21.2 24 22.8
003C4F2E 2019-02-16 23:00:33 21.2 24 22.8
003C4F2E 2019-02-16 22:29:18 21.3 24 22.9
003C4F2E 2019-02-16 21:58:02 21.3 24 22.9
003C4F2E 2019-02-16 21:26:46 21.3 25 22.1
003C4F2E 2019-02-16 20:55:28 21.3 25 21.9
003C4F2E 2019-02-16 20:24:11 21.3 25 21.9
003C4F2E 2019-02-16 19:52:53 21.3 25 21.9
003C4F2E 2019-02-16 19:21:36 21.3 25 21.9
003C4F2E 2019-02-16 18:50:20 21.3 25 21.8
003C4F2E 2019-02-16 18:19:03 21.2 25 21.9
003C4F2E 2019-02-16 17:47:46 21.3 25 21.9
003C4F2E 2019-02-16 17:16:30 21.4 25 21.9
003C4F2E 2019-02-16 16:45:16 21.4 25 21.9
003C4F2E 2019-02-16 16:13:59 21.4 25 21.7
003C4F2E 2019-02-16 15:42:44 21.4 25 21.9
003C4F2E 2019-02-16 15:11:28 21.4 25 21.8
003C4F2E 2019-02-16 14:40:10 21.4 25 21.7
003C4F2E 2019-02-16 14:08:54 21.4 25 21.8
003C4F2E 2019-02-16 13:37:40 21.4 25 22.6
003C4F2E 2019-02-16 13:06:23 21.4 25 22.6
003C4F2E 2019-02-16 12:35:07 21.3 25 22.5
003C4F2E 2019-02-16 12:03:50 21.3 25 22.5
003C4F2E 2019-02-16 11:32:34 21.2 25 22.5
003C4F2E 2019-02-16 11:01:19 21.3 25 22.4
003C4F2E 2019-02-16 10:30:03 21.2 25 22.4
003C4F2E 2019-02-16 09:58:47 21.2 25 22.5
003C4F2E 2019-02-16 09:27:32 21.2 25 22.5
003C4F2E 2019-02-16 08:56:17 21.2 25 22.5
003C4F2E 2019-02-16 08:25:01 21.2 25 22.5
003C4F2E 2019-02-16 07:53:43 21.2 25 23.3
003C4F2E 2019-02-16 07:22:27 21.2 25 23.4
003C4F2E 2019-02-16 06:51:10 21.2 25 23.4
003C4F2E 2019-02-16 06:19:55 21.2 25 23.5
003C4F2E 2019-02-16 05:48:40 21.2 25 23.5
003C4F2E 2019-02-16 05:17:23 21.2 25 23.5
003C4F2E 2019-02-16 04:46:08 21.2 25 23.4
003C4F2E 2019-02-16 04:14:50 21.2 25 23.4
003C4F2E 2019-02-16 03:43:35 21.2 25 23.3
003C4F2E 2019-02-16 03:12:20 21.2 25 23.3
003C4F2E 2019-02-16 02:41:03 21.3 25 23.3
003C4F2E 2019-02-16 02:09:47 21.3 25 23.3
003C4F2E 2019-02-16 01:38:29 21.3 25 23.3
003C4F2E 2019-02-16 01:07:12 21.3 25 23.2
003C4F2E 2019-02-16 00:35:55 21.3 25 22.5
003C4F2E 2019-02-16 00:03:56 21.4 25 22.6
003C4F2E 2019-02-15 23:32:39 21.4 25 22.6
003C4F2E 2019-02-15 23:01:22 21.4 25 22.6
003C4F2E 2019-02-15 22:30:03 21.5 25 22.7
003C4F2E 2019-02-15 21:58:46 21.5 25 22.7
003C4F2E 2019-02-15 21:27:29 21.5 25 22.7
003C4F2E 2019-02-15 20:56:12 21.6 25 23.4
003C4F2E 2019-02-15 20:24:54 21.6 25 23.4
003C4F2E 2019-02-15 19:53:35 21.8 25 23.3
003C4F2E 2019-02-15 19:22:16 21.8 25 23.3
003C4F2E 2019-02-15 18:50:56 21.8 25 22.5
003C4F2E 2019-02-15 18:19:35 21.8 25 22.3
003C4F2E 2019-02-15 17:48:16 21.9 25 22.3
003C4F2E 2019-02-15 17:16:56 21.8 25 22.3
003C4F2E 2019-02-15 16:45:37 21.9 24 22.3
003C4F2E 2019-02-15 16:14:19 21.8 24 22.2
003C4F2E 2019-02-15 15:43:00 21.9 24 22.3
003C4F2E 2019-02-15 15:11:42 21.9 24 22.2
003C4F2E 2019-02-15 14:40:24 21.8 23 22.3
003C4F2E 2019-02-15 14:09:06 21.8 23 22.4
003C4F2E 2019-02-15 13:37:48 21.8 24 22.4
003C4F2E 2019-02-15 13:06:32 21.7 24 22.4
003C4F2E 2019-02-15 12:35:16 21.7 24 22.3
003C4F2E 2019-02-15 12:04:01 21.7 24 22.3
003C4F2E 2019-02-15 11:32:44 21.6 24 22.2
003C4F2E 2019-02-15 11:01:29 21.6 24 22.1
003C4F2E 2019-02-15 10:30:13 21.6 24 22.1
003C4F2E 2019-02-15 09:58:56 21.5 25 22
003C4F2E 2019-02-15 09:27:41 21.5 25 22.1
003C4F2E 2019-02-15 08:56:26 21.4 25 22.1
003C4F2E 2019-02-15 08:25:11 21.4 25 23
003C4F2E 2019-02-15 07:53:56 21.4 25 22.1
003C4F2E 2019-02-15 07:22:40 21.4 25 22.1
003C4F2E 2019-02-15 06:51:22 21.4 25 22.1
003C4F2E 2019-02-15 06:20:06 21.4 25 22
003C4F2E 2019-02-15 05:48:49 21.4 25 22
003C4F2E 2019-02-15 05:17:32 21.4 25 21.9
003C4F2E 2019-02-15 04:46:16 21.4 25 21.8
003C4F2E 2019-02-15 04:14:59 21.4 25 21.7
003C4F2E 2019-02-15 03:43:43 21.4 26 21.6
003C4F2E 2019-02-15 03:12:27 21.4 26 21.5
003C4F2E 2019-02-15 02:41:09 21.4 26 21.6
003C4F2E 2019-02-15 02:09:51 21.4 26 21.6
003C4F2E 2019-02-15 01:38:33 21.4 26 21.4
003C4F2E 2019-02-15 01:07:15 21.4 25 21.4
003C4F2E 2019-02-15 00:35:56 21.4 25 21.3
003C4F2E 2019-02-15 00:04:39 21.5 25 21.2
003C4F2E 2019-02-14 23:33:23 21.5 25 21.1
003C4F2E 2019-02-14 23:02:06 21.5 25 21.1
003C4F2E 2019-02-14 22:30:48 21.5 25 21
003C4F2E 2019-02-14 21:58:48 21.6 25 21
003C4F2E 2019-02-14 21:27:30 21.6 25 20.9
003C4F2E 2019-02-14 20:56:12 21.7 24 20.8
003C4F2E 2019-02-14 20:24:54 21.8 24 20.6
003C4F2E 2019-02-14 19:53:38 21.8 24 20.6
003C4F2E 2019-02-14 19:22:22 21.9 24 19
003C4F2E 2019-02-14 18:51:04 21.9 24 19.2
003C4F2E 2019-02-14 18:19:47 21.9 24 19.4
003C4F2E 2019-02-14 17:48:28 22 24 19.6
003C4F2E 2019-02-14 17:17:11 22 24 19.7
003C4F2E 2019-02-14 16:45:52 22 24 19.7
003C4F2E 2019-02-14 16:14:33 21.9 24 19.9
003C4F2E 2019-02-14 15:43:14 21.9 24 20.1
003C4F2E 2019-02-14 15:11:56 21.8 24 20.2
003C4F2E 2019-02-14 14:40:41 21.7 24 20.3
003C4F2E 2019-02-14 14:09:20 21.6 24 20.5
003C4F2E 2019-02-14 13:38:00 21.5 24 20.4
003C4F2E 2019-02-14 13:06:42 21.4 24 20.5
003C4F2E 2019-02-14 12:35:24 21.3 24 20.7
003C4F2E 2019-02-14 12:04:04 21.3 24 20.8
003C4F2E 2019-02-14 11:32:46 21.2 24 21
003C4F2E 2019-02-14 11:01:29 21 26 21
003C4F2E 2019-02-14 10:30:13 20.9 24 21
003C4F2E 2019-02-14 09:58:53 20.9 24 21
003C4F2E 2019-02-14 09:27:35 20.8 24 21.1
003C4F2E 2019-02-14 08:56:16 20.8 24 21.2
003C4F2E 2019-02-14 08:24:58 20.8 24 21.3
003C4F2E 2019-02-14 07:53:40 20.8 25 21.4
003C4F2E 2019-02-14 07:22:22 20.8 25 21.5
003C4F2E 2019-02-14 06:51:05 20.8 25 21.5
003C4F2E 2019-02-14 06:19:46 20.9 25 21.3
003C4F2E 2019-02-14 05:48:27 20.9 25 21.3
003C4F2E 2019-02-14 05:17:10 20.9 25 21.2
003C4F2E 2019-02-14 04:45:52 20.9 25 21
003C4F2E 2019-02-14 04:14:34 20.9 25 20.9
003C4F2E 2019-02-14 03:43:15 20.9 25 21.1
003C4F2E 2019-02-14 03:11:58 20.9 25 21
003C4F2E 2019-02-14 02:40:41 20.9 25 20.9
003C4F2E 2019-02-14 02:09:22 20.9 25 20.9
003C4F2E 2019-02-14 01:38:03 20.9 25 20.7
003C4F2E 2019-02-14 01:06:46 20.9 25 20.5
003C4F2E 2019-02-14 00:35:28 20.9 25 20.4
003C4F2E 2019-02-14 00:04:10 20.9 25 20.1
003C4F2E 2019-02-13 23:32:52 21 25 20
003C4F2E 2019-02-13 23:01:34 21 25 19.7
003C4F2E 2019-02-13 22:30:15 21 25 19.5
003C4F2E 2019-02-13 21:58:56 21.1 25 19.7
003C4F2E 2019-02-13 21:27:38 21.2 25 19.6
003C4F2E 2019-02-13 20:56:20 21.2 25 19.6
003C4F2E 2019-02-13 20:25:05 21.3 25 19.6
003C4F2E 2019-02-13 19:53:03 21.3 25 19.6
003C4F2E 2019-02-13 19:21:45 21.4 25 19.6
003C4F2E 2019-02-13 18:50:27 21.4 25 19.8
003C4F2E 2019-02-13 18:19:09 21.4 26 19.8
003C4F2E 2019-02-13 17:47:49 21.4 26 19.8
003C4F2E 2019-02-13 17:16:31 21.3 26 19.7
003C4F2E 2019-02-13 16:45:14 21.3 26 19.7
003C4F2E 2019-02-13 16:13:56 21.3 25 19.6
003C4F2E 2019-02-13 15:42:37 21.2 25 19.8
003C4F2E 2019-02-13 15:11:19 21.2 24 19.9
003C4F2E 2019-02-13 14:40:01 21.2 24 19.7
003C4F2E 2019-02-13 14:08:43 21.2 24 19.8
003C4F2E 2019-02-13 13:37:25 21.1 24 19.7
003C4F2E 2019-02-13 13:06:08 21.1 24 19.9
003C4F2E 2019-02-13 12:34:51 21.1 24 20
003C4F2E 2019-02-13 12:03:34 21.1 24 20.2
003C4F2E 2019-02-13 11:32:18 21 24 20.3
003C4F2E 2019-02-13 11:01:00 20.9 23 20.6
003C4F2E 2019-02-13 10:29:44 20.9 23 20.5
003C4F2E 2019-02-13 09:58:24 20.9 22 20.6
003C4F2E 2019-02-13 09:27:07 20.8 22 20.6
003C4F2E 2019-02-13 08:55:48 20.8 21 20.6
003C4F2E 2019-02-13 08:24:30 20.8 21 20.5
003C4F2E 2019-02-13 07:53:14 20.8 20 21.8
003C4F2E 2019-02-13 07:22:01 20.8 20 21.7
003C4F2E 2019-02-13 06:50:38 20.8 20 21.6
003C4F2E 2019-02-13 06:19:20 20.8 20 21.6
003C4F2E 2019-02-13 05:48:02 20.8 20 21.5
003C4F2E 2019-02-13 05:16:44 20.8 20 21.4
003C4F2E 2019-02-13 04:45:26 20.8 20 21.2
003C4F2E 2019-02-13 04:14:08 20.8 20 21.3
003C4F2E 2019-02-13 03:42:50 20.8 20 21.4
003C4F2E 2019-02-13 03:11:32 20.9 19 21.3
003C4F2E 2019-02-13 02:40:13 20.9 20 21.1
003C4F2E 2019-02-13 02:08:54 20.9 19 20.9
003C4F2E 2019-02-13 01:37:36 20.9 19 20.8
003C4F2E 2019-02-13 01:06:18 20.9 20 20.6
003C4F2E 2019-02-13 00:35:00 21 20 20.5
003C4F2E 2019-02-13 00:03:42 21 20 20.4
003C4F2E 2019-02-12 23:32:24 21 20 20.5
003C4F2E 2019-02-12 23:01:07 21.1 20 20.6
003C4F2E 2019-02-12 22:29:49 21.1 20 20.6
003C4F2E 2019-02-12 21:58:30 21.2 21 20.5
003C4F2E 2019-02-12 21:27:13 21.3 21 20.5
003C4F2E 2019-02-12 20:55:55 21.4 21 20.4
003C4F2E 2019-02-12 20:24:38 21.4 21 20.4
003C4F2E 2019-02-12 19:53:18 21.5 21 20.5
003C4F2E 2019-02-12 19:22:00 21.6 20 20.5
003C4F2E 2019-02-12 18:50:41 21.6 20 18.9
003C4F2E 2019-02-12 18:19:23 21.7 20 18.8
003C4F2E 2019-02-12 17:47:23 21.8 20 18.7
003C4F2E 2019-02-12 17:16:05 22 20 18.5
003C4F2E 2019-02-12 16:44:47 22.1 20 18.4
003C4F2E 2019-02-12 16:13:30 22.1 20 18.6
003C4F2E 2019-02-12 15:42:14 22.2 20 18.5
003C4F2E 2019-02-12 15:10:57 22.1 20 18.4
003C4F2E 2019-02-12 14:39:40 21.9 21 18.2
003C4F2E 2019-02-12 14:08:24 21.4 21 18.1
003C4F2E 2019-02-12 13:37:08 21.3 21 18.2
003C4F2E 2019-02-12 13:05:53 21.3 21 18.3
003C4F2E 2019-02-12 12:34:39 21.2 21 18.5
003C4F2E 2019-02-12 12:03:21 21.2 22 18.4
003C4F2E 2019-02-12 11:32:06 21.2 22 18.5
003C4F2E 2019-02-12 11:00:47 21.2 23 18.5
003C4F2E 2019-02-12 10:29:33 21 23 18.4
003C4F2E 2019-02-12 09:58:12 21 23 18
003C4F2E 2019-02-12 09:26:53 20.9 24 17.7
003C4F2E 2019-02-12 08:55:34 20.9 24 17.3
003C4F2E 2019-02-12 08:24:18 20.9 25 17.5
003C4F2E 2019-02-12 07:52:56 20.8 25 17.5
003C4F2E 2019-02-12 07:21:36 20.9 26 17.6
003C4F2E 2019-02-12 06:50:17 20.9 26 17.2
003C4F2E 2019-02-12 06:18:58 20.9 26 17.3
003C4F2E 2019-02-12 05:47:40 20.9 26 17.3
003C4F2E 2019-02-12 05:16:21 20.9 26 17.3
003C4F2E 2019-02-12 04:45:04 20.9 26 17.4
003C4F2E 2019-02-12 04:13:43 20.9 27 17.5
003C4F2E 2019-02-12 03:42:26 21 27 17.4
003C4F2E 2019-02-12 03:11:06 20.9 27 17.2
003C4F2E 2019-02-12 02:39:48 21 27 17.4
003C4F2E 2019-02-12 02:08:32 21 27 17.2
003C4F2E 2019-02-12 01:37:13 21 27 17.3
003C4F2E 2019-02-12 01:05:55 21 27 17.5
003C4F2E 2019-02-12 00:34:39 21.1 27 17.6
003C4F2E 2019-02-12 00:03:18 21.1 27 17.5
003C4F2E 2019-02-11 23:32:02 21.1 27 17.4
003C4F2E 2019-02-11 23:00:40 21.2 27 17.7
003C4F2E 2019-02-11 22:29:20 21.2 27 17.8
003C4F2E 2019-02-11 21:58:00 21.3 27 17.6
003C4F2E 2019-02-11 21:26:43 21.4 27 17.1
003C4F2E 2019-02-11 20:55:24 21.5 27 17.2
003C4F2E 2019-02-11 20:24:07 21.5 27 17.6
003C4F2E 2019-02-11 19:52:50 21.6 27 18.1
003C4F2E 2019-02-11 19:21:33 21.7 27 17.9
003C4F2E 2019-02-11 18:50:17 21.9 27 18.4
003C4F2E 2019-02-11 18:19:00 22 27 17.9
003C4F2E 2019-02-11 17:47:40 22.1 28 18.9
003C4F2E 2019-02-11 17:16:22 22.1 27 18
003C4F2E 2019-02-11 16:45:06 22.2 28 16.2
003C4F2E 2019-02-11 16:13:42 22.2 32 0